| time (UTC) | temp C | wind direction | speed KPH | gust KPH | rain 1hr cm | rain 24hr cm | rain mn cm | humidity % | barometer mb |
| 20260504213001 | 22 | 267 | 11.3 | 25.7 | 0.00 | 0.00 | 0.00 | 29 | 1010.0 |
| 20260504211506 | 22 | 264 | 9.7 | 29.0 | 0.00 | 0.00 | 0.00 | 31 | 1010.0 |
| 20260504210001 | 22 | 207 | 6.4 | 35.4 | 0.00 | 0.00 | 0.00 | 30 | 1009.9 |
| 20260504204502 | 22 | 253 | 9.7 | 16.1 | 0.00 | 0.00 | 0.00 | 30 | 1010.0 |
| 20260504203002 | 22 | 278 | 6.4 | 17.7 | 0.00 | 0.00 | 0.00 | 31 | 1009.8 |
| 20260504201503 | 22 | 210 | 8.0 | 16.1 | 0.00 | 0.00 | 0.00 | 31 | 1010.0 |
| 20260504200002 | 22 | 155 | 4.8 | 20.9 | 0.00 | 0.00 | 0.00 | 31 | 1010.0 |
| 20260504194502 | 22 | 282 | 8.0 | 20.9 | 0.00 | 0.00 | 0.00 | 31 | 1010.2 |
| 20260504193002 | 22 | 193 | 9.7 | 22.5 | 0.00 | 0.00 | 0.00 | 30 | 1010.5 |
| 20260504191502 | 21 | 201 | 8.0 | 27.4 | 0.00 | 0.00 | 0.00 | 31 | 1010.8 |
| 20260504190002 | 21 | 202 | 12.9 | 25.7 | 0.00 | 0.00 | 0.00 | 31 | 1011.2 |
| 20260504184503 | 21 | 250 | 8.0 | 16.1 | 0.00 | 0.00 | 0.00 | 34 | 1011.3 |
| 20260504183007 | 21 | 238 | 9.7 | 20.9 | 0.00 | 0.00 | 0.00 | 34 | 1011.6 |
| 20260504181503 | 21 | 199 | 6.4 | 25.7 | 0.00 | 0.00 | 0.00 | 34 | 1011.8 |
| 20260504180003 | 21 | 224 | 4.8 | 20.9 | 0.00 | 0.00 | 0.00 | 35 | 1011.8 |
| 20260504174507 | 21 | 266 | 6.4 | 22.5 | 0.00 | 0.00 | 0.00 | 35 | 1012.1 |
| 20260504173003 | 20 | 266 | 9.7 | 24.1 | 0.00 | 0.00 | 0.00 | 33 | 1012.3 |
| 20260504171502 | 20 | 306 | 8.0 | 24.1 | 0.00 | 0.00 | 0.00 | 35 | 1012.5 |
| 20260504081510 | 6 | 243 | 0.0 | 8.0 | 0.00 | 0.00 | 0.00 | 65 | 1015.0 |
| 20260504050018 | 7 | 292 | 0.0 | 4.8 | 0.00 | 0.00 | 0.00 | 57 | 1014.4 |
| 20260504044524 | 7 | 273 | 1.6 | 4.8 | 0.00 | 0.00 | 0.00 | 57 | 1014.4 |
| 20260504043006 | 7 | 231 | 0.0 | 4.8 | 0.00 | 0.00 | 0.00 | 58 | 1014.2 |
| 20260504041534 | 7 | 326 | 0.0 | 0.0 | 0.00 | 0.00 | 0.00 | 59 | 1014.2 |
| 20260504040019 | 7 | 302 | 0.0 | 0.0 | 0.00 | 0.00 | 0.00 | 59 | 1014.0 |
| 20260504034509 | 7 | 259 | 0.0 | 0.0 | 0.00 | 0.00 | 0.00 | 59 | 1013.8 |
| 20260504033006 | 7 | 263 | 0.0 | 1.6 | 0.00 | 0.00 | 0.00 | 56 | 1013.7 |
| 20260504031504 | 7 | 205 | 0.0 | 3.2 | 0.00 | 0.00 | 0.00 | 55 | 1013.8 |
| 20260504030004 | 8 | 262 | 0.0 | 3.2 | 0.00 | 0.00 | 0.00 | 53 | 1013.7 |
| 20260504024504 | 8 | 229 | 0.0 | 4.8 | 0.00 | 0.00 | 0.00 | 52 | 1013.7 |
| 20260504023015 | 8 | 226 | 1.6 | 6.4 | 0.00 | 0.00 | 0.00 | 51 | 1013.7 |
| 20260504021515 | 8 | 296 | 0.0 | 1.6 | 0.00 | 0.00 | 0.00 | 53 | 1013.6 |
| 20260504020011 | 7 | 276 | 0.0 | 1.6 | 0.00 | 0.00 | 0.00 | 55 | 1013.6 |
| 20260504014506 | 7 | 219 | 0.0 | 0.0 | 0.00 | 0.00 | 0.00 | 59 | 1013.5 |
| 20260504013009 | 6 | 219 | 0.0 | 0.0 | 0.00 | 0.00 | 0.00 | 65 | 1013.5 |
| 20260504011505 | 6 | 219 | 0.0 | 0.0 | 0.00 | 0.00 | 0.00 | 62 | 1013.3 |
| 20260504010022 | 7 | 219 | 0.0 | 0.0 | 0.00 | 0.00 | 0.00 | 58 | 1013.0 |
| 20260504004521 | 8 | 219 | 0.0 | 0.0 | 0.00 | 0.00 | 0.00 | 53 | 1012.9 |
| 20260504003018 | 9 | 219 | 0.0 | 0.0 | 0.00 | 0.00 | 0.00 | 48 | 1012.7 |
| 20260504001522 | 11 | 219 | 0.0 | 0.0 | 0.00 | 0.00 | 0.00 | 41 | 1012.4 |
| 20260504000011 | 12 | 219 | 0.0 | 0.0 | 0.00 | 0.00 | 0.00 | 38 | 1012.2 |
| 20260503234510 | 13 | 236 | 0.0 | 6.4 | 0.00 | 0.00 | 0.00 | 33 | 1012.0 |
| 20260503233012 | 14 | 335 | 1.6 | 9.7 | 0.00 | 0.00 | 0.00 | 31 | 1011.9 |
| 20260503231526 | 14 | 281 | 3.2 | 11.3 | 0.00 | 0.00 | 0.00 | 30 | 1011.9 |
| 20260503230036 | 15 | 252 | 6.4 | 24.1 | 0.00 | 0.00 | 0.00 | 29 | 1011.9 |
| 20260503224520 | 15 | 281 | 3.2 | 17.7 | 0.00 | 0.00 | 0.00 | 29 | 1011.7 |
| 20260503223019 | 15 | 257 | 6.4 | 14.5 | 0.00 | 0.00 | 0.00 | 30 | 1011.7 |
| 20260503221515 | 15 | 272 | 12.9 | 30.6 | 0.00 | 0.00 | 0.00 | 29 | 1011.8 |
| 20260503220012 | 15 | 264 | 8.0 | 20.9 | 0.00 | 0.00 | 0.00 | 30 | 1011.8 |
| 20260503214524 | 15 | 262 | 12.9 | 27.4 | 0.00 | 0.00 | 0.00 | 29 | 1011.7 |